#timestamp,LO_Frequency,Hit,StdDev 
1634529615.5,286047001.3,N
1634529635.3,286047004.3,N
1634529655.2,286047001.9,N
1634529675.0,286047002.6,N
1634529675.9,286047002.6,N
1634529695.7,286047002.4,N
1634529715.6,286047003.5,N
1634529765.4,286047001.8,E
1634529775.4,286047004.4,N
1634529795.2,286047004.1,P
1634529815.0,286047003.4,P
1634529815.9,286047003.4,Y
1634529835.8,286047000.7,P
1634529855.6,286047000.1,N
1634529875.4,286047001.1,N
1634529895.3,286047002.8,N
1634529915.1,286047002.7,N
1634529916.0,286047002.7,N
1634529935.8,286047000.6,N
1634529955.7,286047002.0,N
1634529975.5,286046998.3,N
1634529995.3,286046998.4,N
1634530015.2,286046998.9,N
1634530035.9,286046999.9,N
1634530055.7,286046996.7,N
1634530075.6,286046999.2,N
1634530095.4,286046998.7,N
1634530115.2,286046999.8,N
1634530135.1,286047001.7,N
1634530136.0,286047001.7,N
1634530155.8,286047004.4,N
1634530175.6,286047002.7,N
1634530195.5,286047000.7,N
1634530215.3,286047001.1,N
1634530235.1,286046998.6,N
1634530255.9,286047000.8,N
1634530275.7,286047000.8,N
1634530295.5,286046998.5,N
1634530315.4,286046999.2,N
1634530335.2,286046996.7,N
1634530355.0,286046999.2,N
1634530355.9,286046999.2,N
1634530375.8,286046997.7,N
1634530395.6,286046995.5,N
1634530415.4,286046994.9,N
1634530435.3,286046995.1,N
1634530455.1,286046996.8,N
1634530456.0,286046996.8,N
1634530475.8,286046999.3,N
1634530495.7,286046999.4,N
1634530515.5,286047001.2,N
1634530535.3,286047000.7,N
1634530555.2,286047002.3,N
1634530575.9,286047002.3,N
1634530595.7,286047001.8,N
1634530615.6,286047003.8,N
1634530635.4,286047003.5,N
1634530655.2,286047002.2,N
1634530675.1,286047002.2,N
1634530676.0,286047002.2,N
1634530695.8,286047004.0,N
1634530715.6,286047001.3,N
1634530735.5,286047002.2,N
1634530755.3,286046999.7,N
1634530775.1,286047004.0,N
1634530795.9,286047004.0,N
1634530815.7,286047001.8,N
1634530835.5,286047005.5,N
1634530855.4,286047005.9,N
1634530875.2,286047005.8,N
1634530895.0,286047003.7,N
1634530895.9,286047003.7,N
1634530915.8,286047004.0,N
1634530935.6,286047003.4,N
1634530955.4,286047005.8,N
1634530975.3,286047004.3,N
1634530995.1,286047002.5,N
1634531015.8,286047002.2,N
1634531035.7,286047002.4,N
1634531055.5,286047001.5,N
1634531075.3,286047002.1,N
1634531095.2,286047003.7,N
1634531115.9,286047005.9,Y
1634531135.7,286047001.4,P
1634531155.6,286047003.8,P
1634531175.4,286047003.7,P
1634531195.2,286047003.6,Y
1634531215.1,286046998.5,P
1634531216.0,286046998.5,N
1634531235.8,286046999.0,N
1634531255.6,286047001.0,N
1634531275.5,286047000.9,N
1634531295.3,286047001.2,N
1634531315.1,286046999.2,N
1634531335.9,286047001.0,N
1634531355.7,286047000.4,N
1634531375.5,286047001.2,N
1634531395.4,286046999.8,N
1634531415.2,286046999.9,N
1634531435.0,286046998.2,N
1634531435.9,286046998.2,N
1634531455.8,286046996.5,N
1634531475.6,286046999.6,N
1634531495.4,286046999.3,N
1634531515.3,286047000.9,N
1634531535.1,286046999.8,N
1634531555.8,286047000.3,N
1634531575.7,286047000.4,N
1634531595.5,286047000.1,N
1634531615.3,286047001.4,N
1634531635.2,286047001.4,N
1634531655.0,286047001.3,N
1634531655.9,286047001.3,N
1634531675.7,286047002.6,N
1634531695.6,286047002.8,N
1634531715.4,286047001.4,N
1634531735.2,286046999.8,N
1634531755.1,286047001.8,N
1634531756.0,286047001.8,N
1634531775.8,286047003.4,N
1634531795.6,286047003.7,N
1634531815.5,286047004.0,N
1634531835.3,286047003.8,N
1634531855.1,286047001.6,N
1634531875.9,286047002.1,N
1634531895.7,286047002.5,N
1634531915.5,286046999.7,N
1634531935.4,286047002.8,N
1634531955.2,286047002.5,N
1634531975.0,286047001.6,N
1634531976.0,286047001.6,N
1634531995.8,286047003.9,N
1634532015.6,286047002.7,N
1634532035.5,286047002.0,N
1634532055.3,286047004.6,Y
1634532075.1,286047003.6,P
1634532095.9,286047002.9,P
1634532115.7,286047003.8,P
1634532135.5,286047001.7,N
1634532155.4,286047001.5,N
1634532175.2,286047002.5,N
1634532195.0,286047002.2,N
1634532195.9,286047002.2,N
1634532215.8,286047001.7,N
1634532235.6,286047004.3,Y
1634532255.4,286047002.7,P
1634532275.3,286047002.1,P
1634532295.1,286047001.8,P
1634532296.0,286047001.8,Y
1634532315.8,286047002.7,P
1634532335.7,286047002.8,P
1634532355.5,286046998.1,P
1634532375.3,286047001.1,N
1634532395.2,286047000.0,N
1634532415.9,286047000.3,N
1634532435.7,286047002.8,N
1634532455.6,286047001.0,N
1634532475.4,286047001.6,N
1634532495.2,286047000.9,N
1634532515.1,286047002.4,N
1634532516.0,286047002.4,N
1634532535.8,286047002.4,N
1634532555.6,286047002.7,N
1634532575.5,286047004.0,Y
1634532595.3,286047002.4,P
1634532615.1,286046998.3,P
1634532635.9,286047000.4,N
1634532655.7,286047001.1,N
1634532675.5,286047000.1,N
1634532695.4,286047002.8,N
1634532715.2,286046998.9,N
1634532735.0,286047000.4,N
1634532735.9,286047000.4,N
1634532755.8,286047001.2,N
1634532775.6,286047001.0,N
1634532795.4,286047001.0,N
1634532815.3,286047000.1,N
1634532835.1,286046998.2,N
1634532836.0,286046998.2,N
1634532855.8,286046998.3,N
1634532875.7,286047000.9,N
1634532895.5,286047000.3,N
1634532915.3,286047004.3,Y
1634532935.2,286047011.9,P
1634532955.9,286047003.9,N
1634532975.7,286047005.6,N
1634532995.6,286047004.2,N
1634533015.4,286047003.3,N
1634533035.2,286047003.4,N
1634533055.1,286047003.2,N
1634533056.0,286047003.2,N
1634533075.8,286047002.0,N
1634533095.6,286047001.8,N
1634533115.5,286047003.1,N
1634533135.3,286047005.9,N
1634533155.1,286047003.4,N
1634533175.9,286047005.9,N
1634533195.7,286047003.6,N
